Regional Weather Roundup
Issued by NWS

Home | Current Version | Previous Version | Text Only | Print | Product List | Glossary Off
Versions: 1 2 3 4 5 6 7 8 9 10 11 12 13 14 15 16 17 18 19 20 21 22 23 24 25 26 27 28 29 30 31 32 33 34 35 36 37 38 39 40 41 42 43 44 45

000
ASUS45 KBOU 280007
RWRCO

WEATHER ROUNDUP FOR COLORADO
NATIONAL WEATHER SERVICE DENVER/BOULDER CO
500 PM MST SAT DEC 27 2014

NOTE: "FAIR" INDICATES FEW OR NO CLOUDS BELOW 12000 FEET WITH NO
SIGNIFICANT WEATHER AND/OR OBSTRUCTIONS TO VISIBILITY.

COZ001>005-013-030-031-280100-
...NORTHWEST COLORADO...

CITY           SKY/WX    TMP DP  RH WIND       PRES   REMARKS
CRAIG          CLEAR      4   0  83 CALM      30.22S
HAYDEN         CLEAR      7   1  78 SE8       30.20S WCI  -6
MEEKER         PTCLDY    10   3  73 CALM      30.21S
MOUNT WERNER   NOT AVBL
STEAMBOAT SPGS CLEAR     11   2  68 SE3       30.18F
WALDEN         MOCLDY     9  -2  61 S13       30.08S WCI  -7
$$

COZ006>008-011-280100-
...WEST CENTRAL VALLEYS...

CITY           SKY/WX    TMP DP  RH WIND       PRES   REMARKS
GRAND JUNCTION PTCLDY    19  12  74 N5        30.29S WCI  12
MONTROSE       MOCLDY    23  10  57 CALM      30.28R
EAGLE          MOCLDY    19   9  63 SW7       30.23R WCI  10
RIFLE          CLEAR     22   8  55 SW3       30.27R
DELTA          CLEAR     28  10  47 E3        30.29R
NUCLA          CLEAR     27   9  46 CALM      30.28S
$$

COZ017>023-064>068-280100-
...SOUTHWEST COLORADO...

CITY           SKY/WX    TMP DP  RH WIND       PRES   REMARKS
DURANGO        CLEAR     21  12  68 SW3       30.19R
CORTEZ         CLEAR     26   8  46 W5        30.23R WCI  20
PAGOSA SPRINGS CLEAR     16  10  77 CALM      30.17R
TELLURIDE      PTCLDY    14   6  70 W8        30.14R WCI   3
WOLF CREEK PAS NOT AVBL
$$

COZ009-010-012-014-032>034-037-058>063-280100-
...CENTRAL COLORADO...

CITY           SKY/WX    TMP DP  RH WIND       PRES   REMARKS
ASPEN          PTCLDY     5  -3  69 SW5       30.16R WCI  -4
BUENA VISTA    CLEAR     13   2  62 CALM      30.07R
COPPER MTN     CLEAR      1  -6  71 W15       29.97R WCI -18
BERTHOUD PASS  CLOUDY    -8 -13  77 MISG      29.89R
COTTONWOOD PAS CLEAR     18  -2  41 NW13G22   29.99S WCI   4
GUNNISON       CLEAR      5   5 100 CALM      30.20R
KREMMLING      CLEAR      3   0  85 CALM      30.18R
LEADVILLE      CLEAR      2  -4  76 NW8       30.04R WCI -12
MONARCH PASS   PTCLDY     0  -6  78 MISG      30.04R
SALIDA         CLEAR     19   2  47 W10G17    30.14S WCI   8
SUNLIGHT       CLOUDY   N/A N/A N/A CALM      30.07R
WILKERSON PASS PTCLDY     5  -6  61 W13G22    29.94R WCI -12
$$

COZ069>075-280100-
...SAN LUIS VALLEY/SANGRE DE CRISTO MOUNTAINS...

CITY           SKY/WX    TMP DP  RH WIND       PRES   REMARKS
ALAMOSA        CLEAR     14   2  58 NE6       30.12R WCI   5
LA VETA PASS   NOT AVBL
SAGUACHE       PTCLDY    -2  -8  78 N5        30.14S WCI -12
$$

COZ035-036-038>040-280100-
...NORTHERN COLORADO FRONT RANGE...

CITY           SKY/WX    TMP DP  RH WIND       PRES   REMARKS
DENVER INTL AP PTCLDY    17  11  77 S10       30.04S WCI   5
DMNS CITY PARK   N/A     27  10  49 S3        30.04S
AURORA         PTCLDY    24   9  54 S6        30.05R WCI  16
FRONT RANGE AP CLEAR     16  10  79 S9        30.05R WCI   4
ERIE MUNI ARPT   N/A     21  10  62 CALM      30.05S
BOULDER MUN AP PTCLDY    23  12  63 CALM      30.04S
CENTENNIAL     PTCLDY    21  11  65 S5        30.03R WCI  15
BROOMFIELD     PTCLDY    27  10  50 CALM      30.04S
FORT COLLINS   PTCLDY    12   3  67 E8        30.08R WCI   1
LONGMONT       PTCLDY    18  12  79 CALM      30.08S
$$

COZ041-046-047-076>085-087-088-280100-
...PIKES PEAK/PALMER DIVIDE AND SOUTHERN FOOTHILLS...

CITY           SKY/WX    TMP DP  RH WIND       PRES   REMARKS
COLO. SPRINGS  PTCLDY    21   6  52 SE6       30.06S WCI  13
A. F. ACADEMY  CLEAR     20   7  57 S6        30.03S WCI  12
ELLICOTT       NOT AVBL
FALCON         CLEAR     17   6  61 S6        30.04S WCI   9
FORT CARSON    CLEAR     22  10  58 SE10      30.05S WCI  11
LIMON          CLEAR     16  10  77 S7        30.08S WCI   6
MONUMENT HILL  CLEAR     10   3  72 S8        30.00S WCI  -1
TRINIDAD       PTCLDY    17   8  67 CALM      30.08F
$$

COZ042>045-048>051-090-091-280100-
...NORTHEAST COLORADO...

CITY           SKY/WX    TMP DP  RH WIND       PRES   REMARKS
GREELEY ARPT   PTCLDY     3  -4  72 N6        30.07S WCI  -8
AKRON          CLEAR     18  10  71 S10       30.09S WCI   6
BURLINGTON     CLEAR     18   8  65 SW6       30.15S WCI  10
WRAY           CLEAR     23  13  66 CALM      30.15S
STERLING       CLEAR     12   9  85 NW3       30.13R
HOLYOKE        CLEAR     14   9  79 SW8       30.14R WCI   3
FORT MORGAN    CLEAR     18  11  74 CALM      30.11R
$$

COZ086-089-092>099-280100-
...SOUTHEAST COLORADO...

CITY           SKY/WX    TMP DP  RH WIND       PRES   REMARKS
PUEBLO         CLEAR     25  13  60 SE8       30.11S WCI  16
LA JUNTA       CLEAR     26  15  63 CALM      30.14S
LAMAR          CLEAR     24  14  65 SW5       30.17S WCI  18
SPRINGFIELD      N/A     24  14  65 S6        30.15F WCI  17
$$



USA.gov is the U.S. government's official web portal to all federal, state and local government web resources and services.